User: anonymous
Location: Long Point Provincial Park
(42.5794°N, 80.4103°W)
Time: 17:24:40
(UTC-04:00)
Language:

Iridium 19 - Orbit

View from above orbital plane
View from above orbital plane
View from above satellite
View from above satellite

Ground track
Ground track

The orbit data is extracted from the following two-line orbital elements,

1 24965U 97056A   14114.33731871  .00000494  00000-0  16917-3 0  7584
2 24965 086.3961 079.3359 0002217 101.4512 258.6933 14.34219456867740
Epoch (UTC): 24 April 2014 08:05:44
Eccentricity: 0.0002217
inclination: 86.3961°
perigee height: 776 km
apogee height: 779 km
right ascension of ascending node: 79.3359°
argument of perigee: 101.4512°
revolutions per day: 14.34219456
mean anomaly at epoch: 258.6933°
orbit number at epoch: 86774

The dashed part of the orbit path shows where the satellite is in the earth's shadow,  

DLR